STARLINK-1010 (44716 NORAD) Tracking and Keplerian Element Data

This shows tracking and keplerian element data for the satellite.

Feedback or suggestion? Click here.




ElementValue
Catalog44716
NameSTARLINK-1010
Epoch Orbit2245
Epoch Day94.25001157
Epoch Year2020
RAAN189.1874
Inclination52.9995
Eccentricity0.0001433
Argument of Perigee77.9604
Mean Anonmoly123.5019
Mean Motion15.00696678
Decay Rate0.00073107
L11 44716U 19074D 20094.25001157 .00073107 00000-0 56739-2 0 9999
L22 44716 52.9995 189.1874 0001433 77.9604 123.5019 15.00696678 22457

Live tracking and technical data element details for STARLINK-1010 (NORAD 44716). STARLINK-1010 can be tracked NOW for your location showing map with azimuth and elevation plus other details from your city location.

Track the satellite on the map from your city or location and see movement details for azimuth, elevation, latitude, longitude, range, height, and movement on the map or in text.







IsCatalogInMostPopularTable: catalog: 44716, numindb: 26
Update: records affected: 1



GetName: 44716 STARLINK-1010

Hit Count: updated at: Sun, 05 Apr 2020 18:34:49 GMT